Tracking 29892 objects as of 21-Nov-2024
HD Live streaming from Space Station
objects crossing your sky now

OBJECT K

Track OBJECT K now!
10-day predictions


NORAD ID: 42834
Int'l Code: 2017-042K
Perigee: 565.7 km
Apogee: 577.4 km
Inclination: 97.4 °
Period: 95.9 minutes
Semi major axis: 6942 km
RCS: Unknown
Launch date: July 14, 2017
Source: (TBD)
Launch site: TYURATAM MISSILE AND SPACE COMPLEX (TTMTR)
Your satellite tracking list
Your tracking list is empty




NASA's NSSDC Master Catalog

Two Line Element Set (TLE):
1 42834U 17042K   24325.88586777  .00007198  00000-0  57056-3 0  9998
2 42834  97.3781 140.4863 0008377 240.5383 119.5007 15.00806904400745
Source of the keplerian elements: AFSPC